Starlink 30473

operational
NORAD ID: 57893 Int'l Des: 2023-146 Owner: SPXS Country: US Constellation: starlink
LEOCIRCULAR

Über Starlink 30473

Beschreibung wird geladen...

Live-Position

3D-Globus wird geladen...

Nächste Überflüge

Höhenverlauf

Altitude vs Time

uPlot chart will show altitude changes over time

Zweizeiliger Elementsatz

1 57893U 23146C 26035.95867041 .00000427 00000-0 46647-4 0 9998
2 57893 43.0023 131.0550 0001274 278.8581 81.2117 15.02538298132148
Epoch: 4. Feb. 2026 • Age: 10 hours

Aktueller Status

Höhe 563.1 km
Geschwindigkeit 7.59 km/s
Subsatellitenpunkt 43.00°N, 57.23°W
Startdatum 20. Sept. 2023
Alter 2.3 years
Typ internet

Technische Details

Klassifizierung Payload
Masse 730.00 kg
Trockenmasse 700.00 kg
Gesamtmasse 730.00 kg
Länge 0.30 m
Durchmesser 4.10 m
Spannweite 29.00 m
Form Box + pan
Hersteller SPXS
Bus-Typ Starlink V2M
Phasenstatus In Orbit
Besitzer/Staat SPXS/US

Große Konstellationen

Loading constellations...